Weather History for Rome, OR

Change the Weather History Date:

Tuesday, April 9, 2013

  Actual Average Record
Temperature  
Mean Temperature 44 °F 44 °F  
Max Temperature 59 °F 59 °F 77 °F (1942)
Min Temperature 28 °F 29 °F 23 °F (1987)
Degree Days  
Heating Degree Days 21 21  
Month to date heating degree days 134 195  
Since 1 July heating degree days 5515 5710  
Cooling Degree Days 0 0  
Month to date cooling degree days 0 0  
Year to date cooling degree days 0 0  
Moisture  
Dew Point 17 °F    
Average Humidity 45    
Maximum Humidity 75    
Minimum Humidity 15    
Precipitation  
Precipitation 0.00 in 0.02 in 0.72 in (1965)
Month to date precipitation 0.17 0.26  
Year to date precipitation 1.41 2.65  
Sea Level Pressure  
Sea Level Pressure 30.15 in    
Wind  
Wind Speed 10 mph (NNW)    
Max Wind Speed 26 mph    
Max Gust Speed 33 mph    
T = Trace of Precipitation, MM = Missing Value Source: NWS Daily Summary

Daily Weather History Graph

Daily Weather History Graph

Search for Another Location

Airport:

Trip Planner

Search our weather history database for the weather conditions in past years. The results will help you decide how hot, cold, wet, or windy it might be!

Date:

Astronomy

Apr. 09, 2013 Rise Set
Actual Time 6:19 AM PDT 7:26 PM PDT
Civil Twilight 5:50 AM PDT 7:55 PM PDT
Nautical Twilight 5:16 AM PDT 8:30 PM PDT
Astronomical Twilight 4:39 AM PDT 9:07 PM PDT
Moon 5:45 AM PDT (4/9) 7:07 PM PDT (4/9)
Length of Visible Light 14h 05m
Length of Day
13h 07m
Waning Crescent, 0% of the Moon is Illuminated
Apr 9
Waning Crescent
Apr 10
New
Apr 18
First Quarter
Apr 25
Full
May 2
Last Quarter

Hourly Weather History & Observations

Time (PDT) Temp. Windchill Dew Point Humidity Pressure Visibility Wind Dir Wind Speed Gust Speed Precip Events Conditions
12:52 AM 35.1 °F 26.4 °F 19.9 °F 54% 30.07 in - NW 12.7 mph 19.6 mph N/A   Unknown
1:52 AM 34.0 °F 28.8 °F 19.0 °F 54% 30.08 in - NW 5.8 mph - N/A   Unknown
2:52 AM 34.0 °F 28.0 °F 19.0 °F 54% 30.07 in - WNW 6.9 mph - N/A   Unknown
3:52 AM 32.0 °F 24.8 °F 21.9 °F 66% 30.08 in - NNW 8.1 mph - N/A   Unknown
4:52 AM 32.0 °F 24.8 °F 23.0 °F 69% 30.10 in - NW 8.1 mph - N/A   Unknown
5:52 AM 28.9 °F - 21.0 °F 72% 30.13 in - Calm Calm - N/A   Unknown
6:52 AM 30.9 °F - 21.0 °F 67% 30.16 in - Calm Calm - N/A   Unknown
7:52 AM 39.0 °F 31.0 °F 21.0 °F 49% 30.16 in - NNW 13.8 mph - N/A   Unknown
8:52 AM 42.1 °F 33.9 °F 19.0 °F 40% 30.17 in - NNW 17.3 mph 23.0 mph N/A   Unknown
9:52 AM 45.0 °F 36.9 °F 19.0 °F 36% 30.18 in - NNW 20.7 mph 24.2 mph N/A   Unknown
10:52 AM 48.9 °F - 17.1 °F 28% 30.18 in - North 16.1 mph 25.3 mph N/A   Unknown
11:52 AM 52.0 °F - 15.1 °F 23% 30.17 in - North 15.0 mph 28.8 mph N/A   Unknown
12:52 PM 54.0 °F - 14.0 °F 21% 30.13 in - NNW 18.4 mph 31.1 mph N/A   Unknown
1:52 PM 57.0 °F - 10.0 °F 15% 30.13 in - NNW 20.7 mph 28.8 mph N/A   Unknown
2:52 PM 57.9 °F - 10.9 °F 16% 30.12 in - North 17.3 mph 28.8 mph N/A   Unknown
3:52 PM 57.0 °F - 10.0 °F 15% 30.12 in - NNW 15.0 mph 28.8 mph N/A   Unknown
4:52 PM 57.9 °F - 10.9 °F 16% 30.12 in - NNW 17.3 mph 28.8 mph N/A   Unknown
5:52 PM 57.0 °F - 12.9 °F 18% 30.15 in - NW 9.2 mph 21.9 mph N/A   Unknown
6:52 PM 55.0 °F - 12.9 °F 19% 30.15 in - NNW 13.8 mph - N/A   Unknown
7:52 PM 48.0 °F - 17.1 °F 29% 30.16 in - NW 5.8 mph - N/A   Unknown
8:52 PM 46.9 °F - 16.0 °F 29% 30.20 in - North 9.2 mph - N/A   Unknown
9:52 PM 41.0 °F 36.4 °F 17.1 °F 38% 30.23 in - North 6.9 mph - N/A   Unknown
10:52 PM 39.9 °F - 19.9 °F 45% 30.22 in - Calm Calm - N/A   Unknown
11:52 PM 39.9 °F 37.8 °F 23.0 °F 51% 30.22 in - WNW 3.5 mph - N/A   Unknown